Wichita Jabara, KS

5:44 AM CDT on September 20, 2019 (GMT -0500)
Col Jabara

Weather History for KAAO - August, 2019

Change the Weather History Date:

Saturday, August 24, 2019

  Actual Average (WUND) Record (WUND)
Temperature  
Mean Temperature 75 °F -  
Max Temperature 82 °F - - (-1)
Min Temperature 68 °F - - (-1)
Cooling Degree Days 10    
Growing Degree Days 25 (Base 50)    
Moisture  
Dew Point 69 °F    
Average Humidity 87    
Maximum Humidity 100    
Minimum Humidity 69    
Precipitation  
Precipitation 0.00 in - - ()
Sea Level Pressure  
Sea Level Pressure 29.98 in    
Wind  
Wind Speed 5 mph ()    
Max Wind Speed 14 mph    
Max Gust Speed 20 mph    
Visibility 9.9 miles    
Events      
Averages and records for this station are not official NWS values.
T = Trace of Precipitation, MM = Missing Value Source: Averaged Metar Reports

Daily Weather History Graph

Daily Weather History Graph

Search for Another Location

Airport or City:

Astronomy

Aug. 24, 2019 Rise Set
Actual Time 6:52 AM CDT 8:09 PM CDT
Civil Twilight 6:24 AM CDT 8:37 PM CDT
Nautical Twilight 5:51 AM CDT 9:09 PM CDT
Astronomical Twilight 5:17 AM CDT 9:43 PM CDT
Moon 12:48 AM CDT (8/24) 3:24 PM CDT (8/24)
Length of Visible Light 14h 12m
Length of Day
13h 17m
Last Quarter, 39% of the Moon is Illuminated
Aug 24
Last Quarter
Aug 30
New
Sep 5
First Quarter
Sep 13
Full
Sep 21
Last Quarter

Hourly Weather History & Observations

Time (CDT) Temp. Heat Index Dew Point Humidity Pressure Visibility Wind Dir Wind Speed Gust Speed Precip Events Conditions
12:54 AM 69.1 °F - 68.0 °F 96% 30.01 in 10.0 mi ESE 3.5 mph - N/A   Clear
1:54 AM 69.1 °F - 66.9 °F 93% 30.01 in 10.0 mi Calm Calm - N/A   Partly Cloudy
2:54 AM 68.0 °F - 66.9 °F 96% 30.00 in 10.0 mi Calm Calm - N/A   Scattered Clouds
3:07 AM 69.1 °F - 68.0 °F 96% 30.04 in 10.0 mi Calm Calm - N/A   Mostly Cloudy
3:28 AM 68.0 °F - 66.9 °F 96% 30.03 in 10.0 mi ENE 3.5 mph - N/A   Overcast
3:54 AM 69.1 °F - 68.0 °F 96% 29.99 in 10.0 mi ENE 5.8 mph - N/A   Overcast
4:26 AM 69.1 °F - 68.0 °F 96% 30.02 in 10.0 mi ENE 5.8 mph - N/A   Mostly Cloudy
4:33 AM 69.1 °F - 68.0 °F 96% 30.02 in 10.0 mi Calm Calm - N/A   Overcast
4:54 AM 69.1 °F - 68.0 °F 96% 29.99 in 10.0 mi ENE 4.6 mph - N/A   Overcast
5:54 AM 68.0 °F - 68.0 °F 100% 29.99 in 7.0 mi Calm Calm - N/A   Overcast
6:54 AM 70.0 °F - 69.1 °F 97% 29.99 in 9.0 mi East 5.8 mph - N/A   Overcast
7:20 AM 70.0 °F - 69.1 °F 97% 30.03 in 10.0 mi East 6.9 mph - N/A   Overcast
7:54 AM 70.0 °F - 69.1 °F 97% 30.00 in 10.0 mi ESE 5.8 mph - N/A   Overcast
8:54 AM 71.1 °F - 69.1 °F 93% 30.01 in 10.0 mi SE 5.8 mph - N/A   Overcast
9:41 AM 72.0 °F - 69.1 °F 91% 30.03 in 10.0 mi East 8.1 mph - N/A   Overcast
9:51 AM 71.6 °F - 69.8 °F 94% 30.03 in 10.0 mi East 8.1 mph - N/A   Overcast
9:54 AM 72.0 °F - 69.1 °F 91% 30.01 in 10.0 mi East 6.9 mph - N/A   Overcast
10:54 AM 73.9 °F - 69.1 °F 85% 29.98 in 10.0 mi East 11.5 mph - N/A   Overcast
11:18 AM 73.9 °F - 69.1 °F 85% 30.03 in 10.0 mi East 6.9 mph - N/A   Overcast
11:54 AM 73.9 °F - 69.1 °F 85% 29.99 in 10.0 mi East 8.1 mph - N/A   Overcast
12:54 PM 75.0 °F - 69.1 °F 82% 29.99 in 10.0 mi East 3.5 mph - N/A   Overcast
1:04 PM 75.0 °F - 69.1 °F 82% 30.01 in 10.0 mi East 5.8 mph - N/A   Overcast
1:54 PM 79.0 °F - 70.0 °F 74% 29.95 in 10.0 mi ESE 10.4 mph 18.4 mph N/A   Mostly Cloudy
2:54 PM 80.1 °F 83.2 °F 70.0 °F 71% 29.94 in 10.0 mi SE 10.4 mph 18.4 mph N/A   Mostly Cloudy
3:54 PM 80.1 °F 83.2 °F 70.0 °F 71% 29.92 in 10.0 mi ESE 11.5 mph - N/A   Overcast
4:37 PM 80.1 °F 83.2 °F 70.0 °F 71% 29.95 in 10.0 mi ESE 9.2 mph - N/A   Mostly Cloudy
4:47 PM 80.1 °F 83.2 °F 70.0 °F 71% 29.95 in 10.0 mi SE 8.1 mph - N/A   Mostly Cloudy
4:54 PM 82.0 °F 86.3 °F 71.1 °F 69% 29.91 in 10.0 mi ESE 6.9 mph - N/A   Overcast
5:54 PM 82.0 °F 86.3 °F 71.1 °F 69% 29.91 in 10.0 mi SE 10.4 mph - N/A   Mostly Cloudy
6:54 PM 80.1 °F 83.6 °F 71.1 °F 74% 29.91 in 10.0 mi East 6.9 mph - N/A   Partly Cloudy
7:54 PM 77.0 °F - 71.1 °F 82% 29.92 in 10.0 mi East 8.1 mph - N/A   Mostly Cloudy
8:41 PM 75.9 °F - 71.1 °F 85% 29.96 in 10.0 mi East 10.4 mph - N/A   Overcast
8:54 PM 75.0 °F - 71.1 °F 87% 29.93 in 10.0 mi East 9.2 mph - N/A   Overcast
9:25 PM 73.9 °F - 71.1 °F 91% 29.95 in 10.0 mi East 10.4 mph - N/A   Overcast
9:54 PM 73.0 °F - 70.0 °F 90% 29.93 in 10.0 mi East 10.4 mph - N/A   Overcast
10:15 PM 72.0 °F - 69.1 °F 91% 29.96 in 10.0 mi East 12.7 mph - N/A   Overcast
10:54 PM 71.1 °F - 69.1 °F 93% 29.93 in 10.0 mi ESE 11.5 mph 19.6 mph N/A   Overcast
11:54 PM 71.1 °F - 69.1 °F 93% 29.90 in 10.0 mi ESE 13.8 mph 19.6 mph N/A   Overcast